Portsmouth, NH

7:24 AM EST on December 11, 2019 (GMT -0500)
Pease International Tradeport

Weather History for KPSM - November, 2019

Change the Weather History Date:

Friday, November 15, 2019

  Actual Average Record
Temperature  
Mean Temperature 39 °F -  
Max Temperature 50 °F 46 °F 73 °F (1993)
Min Temperature 28 °F 30 °F 18 °F (2018)
Degree Days  
Heating Degree Days 26    
Moisture  
Dew Point 21 °F    
Average Humidity 49    
Maximum Humidity 77    
Minimum Humidity 27    
Precipitation  
Precipitation 0.00 in - - ()
Sea Level Pressure  
Sea Level Pressure 30.10 in    
Wind  
Wind Speed 7 mph ()    
Max Wind Speed 22 mph    
Max Gust Speed 28 mph    
Visibility 10.0 miles    
Events      
Averages and records for this station are not official NWS values.
T = Trace of Precipitation, MM = Missing Value Source: Averaged Metar Reports

Daily Weather History Graph

Daily Weather History Graph

Search for Another Location

Airport or City:

Astronomy

Nov. 15, 2019 Rise Set
Actual Time 6:35 AM EST 4:19 PM EST
Civil Twilight 6:04 AM EST 4:50 PM EST
Nautical Twilight 5:30 AM EST 5:24 PM EST
Astronomical Twilight 4:56 AM EST 5:58 PM EST
Moon 6:49 PM EST (11/15) 9:31 AM EST (11/15)
Length of Visible Light 10h 45m
Length of Day
9h 44m
Waning Gibbous, 90% of the Moon is Illuminated
Nov 15
Waning Gibbous
Nov 19
Last Quarter
Nov 26
New
Dec 4
First Quarter
Dec 12
Full

Hourly Weather History & Observations

Time (EST) Temp. Windchill Dew Point Humidity Pressure Visibility Wind Dir Wind Speed Gust Speed Precip Events Conditions
12:56 AM 30.4 °F 26.9 °F 22.1 °F 71% 30.21 in 10.0 mi SSW 3.5 mph - N/A   Mostly Cloudy
2:56 AM 30.2 °F 23.4 °F 23.5 °F 76% 30.18 in 10.0 mi SSW 6.9 mph - N/A   Scattered Clouds
4:56 AM 28.9 °F 21.9 °F 22.6 °F 77% 30.17 in 10.0 mi SSW 6.9 mph - N/A   Clear
5:56 AM 29.3 °F 24.3 °F 22.3 °F 75% 30.17 in 10.0 mi SSW 4.6 mph - N/A   Partly Cloudy
6:56 AM 30.0 °F 25.2 °F 21.7 °F 71% 30.15 in 10.0 mi WSW 4.6 mph - N/A   Partly Cloudy
7:56 AM 32.5 °F 28.1 °F 22.5 °F 66% 30.15 in 10.0 mi SW 4.6 mph - N/A   Clear
8:56 AM 38.5 °F 32.7 °F 21.4 °F 50% 30.12 in 10.0 mi SW 8.1 mph - N/A   Clear
9:56 AM 43.0 °F 37.2 °F 19.8 °F 40% 30.10 in 10.0 mi SW 10.4 mph 18.4 mph N/A   Clear
10:56 AM 46.4 °F 40.7 °F 19.6 °F 34% 30.07 in 10.0 mi SW 12.7 mph - N/A   Clear
11:56 AM 46.8 °F - 18.5 °F 32% 30.05 in 10.0 mi West 12.7 mph - N/A   Clear
12:56 PM 49.1 °F - 17.4 °F 28% 30.02 in 10.0 mi SW 11.5 mph - N/A   Clear
1:56 PM 50.0 °F - 17.2 °F 27% 30.00 in 10.0 mi WSW 11.5 mph - N/A   Clear
2:56 PM 49.5 °F - 18.5 °F 29% 30.00 in 10.0 mi SW 9.2 mph - N/A   Partly Cloudy
3:56 PM 46.9 °F - 19.4 °F 34% 30.00 in 10.0 mi SW 8.1 mph - N/A   Partly Cloudy
4:56 PM 44.1 °F 40.8 °F 20.1 °F 39% 30.02 in 10.0 mi West 5.8 mph - N/A   Partly Cloudy
5:56 PM 43.7 °F 36.0 °F 23.2 °F 44% 30.04 in 10.0 mi West 17.3 mph 25.3 mph N/A   Scattered Clouds
6:56 PM 43.0 °F 36.4 °F 24.1 °F 47% 30.04 in 10.0 mi West 12.7 mph - N/A   Partly Cloudy
8:51 PM 41.0 °F 35.2 °F 23.0 °F 49% 30.08 in 10.0 mi West 9.2 mph - N/A   Mostly Cloudy
8:56 PM 40.8 °F 35.0 °F 22.1 °F 47% 30.08 in 10.0 mi West 9.2 mph - N/A   Mostly Cloudy
9:56 PM 39.9 °F 35.1 °F 22.8 °F 50% 30.10 in 10.0 mi West 6.9 mph - N/A   Mostly Cloudy
10:56 PM 39.0 °F 28.8 °F 22.5 °F 52% 30.16 in 10.0 mi NNW 21.9 mph 27.6 mph N/A   Overcast
11:56 PM 35.4 °F 26.8 °F 18.7 °F 51% 30.21 in 10.0 mi WNW 12.7 mph - N/A   Mostly Cloudy